Home > Weather > Wichita > Past weeks

Flag for U.S.A. Weather for the Past 2 Weeks in Wichita, Kansas, U.S.A.

Now
32 °F

Passing clouds.


Feels Like: 29 °F
Forecast: 30 / 44 °F
Wind: 3 mph from West

Location: Wichita Mid-Continent Airport

Current Time: Feb 12, 2016 at 2:21:11 AM

Latest Report: Feb 12, 2016 at 1:53 AM


Visibility: 10 mi

Pressure: 30.20 "Hg

Humidity: 75%

Dew point: 25 °F

Location of WichitaLocation

Historic Weather in Wichita — Graph

°F

Wichita Temperature Yesterday

Maximum temperature yesterday: 47 °F (at 2:53 PM)
Minimum temperature yesterday: 28 °F (at 11:53 PM)
Average temperature yesterday: 38 °F

High & Low Weather Summary for the Past Weeks

 TemperatureHumidityPressure
High71 °F (Feb 10, 4:53 PM)100% (Feb 2, 3:53 AM)30.41 "Hg (Feb 2, 3:53 AM)
Low18 °F (Feb 4, 7:53 AM)19% (Feb 4, 3:53 PM)29.34 "Hg (Feb 2, 4:53 AM)
Average40 °F57%30.03 "Hg
* Reported Jan 28 12:53 AM — Feb 12 12:53 AM, Wichita, Weather by CustomWeather, © 2016

Note: Actual official high and low records may vary slightly from our data, if they occured in-between our weather recording intervals... More about our weather records

Advertising

Wichita Weather History for the Previous 24 Hours

 ConditionsComfort  
Time TempWeatherWind HumidityBarometerVisibility
12:53 AM
Fri, Feb 12
31 °FPassing clouds.3 mph76%30.20 "Hg10 mi
11:53 PM
Thu, Feb 11
28 °FPassing clouds.6 mph81%30.21 "Hg10 mi
10:53 PM35 °FPassing clouds.No wind70%30.21 "Hg10 mi
9:53 PM31 °FPassing clouds.No wind76%30.21 "Hg10 mi
8:53 PM38 °FPassing clouds.3 mph63%30.21 "Hg10 mi
7:53 PM39 °FPassing clouds.5 mph60%30.19 "Hg10 mi
6:53 PM41 °FPassing clouds.3 mph55%30.17 "Hg10 mi
5:53 PM44 °FScattered clouds.No wind49%30.16 "Hg10 mi
4:53 PM47 °FBroken clouds.3 mph44%30.16 "Hg10 mi
2:53 PM47 °FBroken clouds.No wind41%30.17 "Hg10 mi
1:53 PM44 °FPartly sunny.No wind45%30.19 "Hg10 mi
12:53 PM43 °FScattered clouds.No wind45%30.22 "Hg10 mi
11:53 AM41 °FBroken clouds.8 mph49%30.24 "Hg10 mi
10:53 AM37 °FPassing clouds.9 mph54%30.26 "Hg10 mi
9:53 AM33 °FPassing clouds.13 mph63%30.28 "Hg10 mi
8:53 AM30 °FPassing clouds.15 mph72%30.26 "Hg10 mi
7:53 AM29 °FPassing clouds.14 mph79%30.23 "Hg10 mi
6:53 AM30 °FPassing clouds.15 mph75%30.20 "Hg10 mi
5:53 AM33 °FPassing clouds.12 mph75%30.18 "Hg10 mi
4:53 AM35 °FPassing clouds.8 mph72%30.14 "Hg10 mi
3:53 AM38 °FPassing clouds.7 mph70%30.10 "Hg10 mi
2:53 AM40 °FPassing clouds.10 mph68%30.06 "Hg10 mi
Weather by CustomWeather, © 2016

See weather overviewHow to use our weather pages